Theta_e
325 325 325 324 324 322 322 323 324 325 323 322 321 322 322 322 321 313 308 320 325 332 327 317 314 312 310 307 309 310 300 297 300 300 301 305 303 307 309 308 312 316 313 317 324
324 325 325 325 325 324 323 323 324 324 324 322 321 321 321 321 313 308 321 328 329 330 315 313 309 310 302 303 304 302 297 301 304 303 302 304 304 305 304 305 310 316 321 322 323
323 323 325 324 324 324 324 323 323 323 323 322 321 321 320 317 305 306 326 327 328 328 317 316 314 308 300 300 300 300 297 302 303 306 306 305 305 305 304 301 307 313 318 320 319
322 322 323 323 324 324 324 323 323 323 323 322 321 320 320 312 286 316 325 327 328 324 317 313 310 302 298 297 301 296 301 301 303 308 307 305 307 303 303 303 308 313 322 320 319
321 320 321 322 322 323 324 323 323 322 322 322 321 320 313 303 300 318 323 323 322 319 314 311 306 303 297 298 299 297 298 302 304 306 306 308 305 305 306 308 310 319 321 320 320
320 319 319 321 321 322 323 323 323 322 322 321 320 321 307 294 311 314 316 318 320 317 311 311 309 309 304 302 298 302 303 303 304 302 305 303 302 305 307 308 308 316 318 319 319
318 318 318 319 321 322 322 322 322 322 321 319 318 314 305 300 315 316 316 314 319 318 312 312 314 308 307 301 307 304 298 299 300 301 303 304 300 301 305 308 307 308 309 314 318
317 317 317 318 319 321 321 322 321 321 321 320 319 309 298 312 311 311 316 311 317 320 317 317 316 310 307 307 303 298 297 291 297 299 302 303 291 301 305 304 304 304 303 307 310
316 315 316 317 318 319 321 321 320 321 320 319 308 304 296 312 306 311 311 309 312 317 315 317 313 305 304 296 292 293 286 290 294 299 298 300 294 301 304 301 301 300 301 302 304
314 315 315 316 317 318 318 320 320 318 315 313 307 294 297 299 306 310 309 309 309 311 307 307 304 296 296 291 281 284 287 289 289 294 295 296 296 301 301 301 301 300 300 301 304
314 314 315 315 316 317 315 311 304 302 305 298 296 295 299 305 308 305 307 305 307 305 294 300 294 290 294 296 292 292 289 287 290 295 293 293 294 297 301 298 298 298 299 301 303
313 314 314 314 314 316 313 301 305 305 297 303 301 299 304 305 298 303 307 299 299 294 297 293 289 294 297 298 295 292 289 288 291 294 291 289 289 293 296 296 298 299 300 300 301
312 312 313 313 314 310 305 304 311 308 293 299 301 298 301 302 297 298 302 299 296 293 294 287 290 296 296 294 293 292 290 289 289 291 290 287 285 288 293 295 297 299 300 300 300
312 312 312 312 305 303 300 309 310 308 288 290 296 299 301 301 294 303 304 299 294 292 293 292 295 294 293 292 293 288 293 293 291 288 282 287 276 285 288 289 291 293 293 297 298
311 311 312 312 299 299 302 309 308 303 276 291 294 305 302 295 296 298 305 299 290 291 292 287 290 290 290 292 295 291 295 292 290 286 284 283 281 283 286 287 291 294 294 291 295
309 310 310 307 301 302 308 308 303 284 275 287 294 293 293 295 295 298 299 299 296 291 290 288 292 293 292 295 296 295 291 289 288 285 276 283 282 279 283 287 288 291 291 294 293
308 308 307 304 297 305 307 300 283 277 284 284 287 292 291 291 292 294 292 291 285 281 279 285 288 291 293 290 293 291 286 273 272 273 275 281 281 281 286 288 289 291 291 292 295
307 307 305 302 303 305 301 289 277 281 282 288 289 291 287 291 291 292 290 287 290 285 282 278 276 287 292 290 288 289 288 279 271 271 274 280 277 282 288 291 291 292 294 295 296
307 300 300 302 304 303 293 281 279 280 286 286 288 285 286 290 289 290 289 287 289 289 282 281 281 288 291 292 292 287 285 288 279 269 273 277 280 286 289 290 289 291 294 294 295
299 296 295 303 304 298 286 282 284 288 288 288 282 285 283 284 286 287 287 290 288 291 289 286 280 287 290 292 291 289 292 282 278 267 266 274 276 279 282 287 289 290 291 292 292
296 288 295 302 301 289 280 282 284 290 290 286 284 285 284 284 286 286 286 289 292 290 292 287 283 282 288 285 286 286 285 286 285 280 273 270 274 282 286 287 289 290 291 291 291
292 281 294 299 285 284 281 281 287 287 291 290 289 287 285 288 287 286 285 288 293 292 287 288 284 278 282 287 290 290 285 286 278 275 278 278 278 287 287 287 289 290 291 291 290
285 285 295 295 279 280 282 276 285 285 289 288 287 289 288 287 284 287 287 291 291 291 288 290 283 273 278 283 285 285 288 289 286 283 279 275 278 287 287 287 289 289 289 290 289
285 280 287 289 286 281 279 276 277 288 286 289 289 290 288 286 289 285 286 289 290 292 295 294 283 282 277 280 284 282 286 287 287 280 279 280 281 284 285 287 288 288 289 289 290
285 278 279 279 281 281 282 279 279 277 286 288 286 288 287 283 285 284 288 288 289 293 292 290 280 283 285 282 285 284 284 286 283 285 281 283 282 287 288 287 286 288 289 289 289
282 281 283 270 279 281 282 279 279 282 284 281 281 286 288 286 286 285 287 287 286 288 289 289 278 283 277 284 282 281 285 286 286 286 285 285 284 291 292 291 291 292 292 289 289
288 288 283 283 278 280 278 279 280 283 285 287 286 284 283 288 292 291 292 292 289 287 287 287 281 276 278 283 281 277 281 284 285 287 286 282 287 291 290 290 290 291 290 290 292
Wind_Speed
12 12 11 10 8 8 7 6 5 4 4 3 2 4 6 9 12 4 4 4 6 11 11 7 5 8 4 4 3 3 5 2 2 1 3 3 1 2 1 5 4 4 4 3 14
13 13 12 11 9 8 7 7 6 4 4 2 1 4 8 8 2 6 4 7 9 8 5 7 6 9 4 3 3 5 4 8 1 0 1 3 1 3 4 3 4 3 5 7 13
7 13 12 12 11 10 9 7 6 6 4 3 2 3 8 7 2 3 5 7 8 5 2 2 4 2 2 2 2 3 5 3 1 2 1 2 5 5 6 2 6 7 8 8 6
7 7 12 11 11 11 10 9 7 7 6 5 3 4 8 3 4 2 4 6 5 1 1 2 1 1 1 3 3 2 4 2 2 2 2 2 3 3 3 3 1 7 11 7 8
9 8 7 12 12 12 11 10 9 7 5 5 3 3 3 1 6 2 3 6 3 2 3 2 2 2 3 2 2 1 2 2 2 2 2 4 3 3 5 5 3 9 10 12 12
8 8 7 7 11 12 12 11 10 8 6 4 2 1 1 3 1 2 3 4 4 2 1 3 1 1 3 2 2 1 1 5 3 1 3 4 3 3 5 1 5 8 11 10 12
10 9 7 6 7 11 12 11 10 9 7 6 3 1 3 9 1 1 1 1 2 2 2 2 0 1 1 0 2 2 1 4 3 2 5 1 6 11 6 5 9 9 9 8 11
11 10 9 7 5 8 10 11 11 10 9 7 5 0 6 4 3 4 1 2 3 2 1 4 2 2 1 3 4 1 3 1 3 4 5 8 9 10 6 4 9 10 7 8 11
12 10 9 8 6 5 7 10 11 11 10 9 3 3 7 7 3 5 4 1 1 2 3 2 3 1 3 5 4 4 4 4 6 4 3 7 5 7 5 7 7 7 8 8 8
13 12 10 8 8 6 4 5 11 11 7 4 1 3 4 4 2 4 1 1 1 2 3 3 3 3 2 4 7 6 4 4 5 2 1 6 6 9 3 3 8 8 9 9 10
16 14 13 11 8 8 6 3 5 3 5 7 10 4 3 1 2 2 3 2 1 3 4 2 3 10 19 8 3 5 3 2 3 1 3 5 5 11 10 5 9 10 11 12 14
16 16 15 13 11 10 5 4 2 2 4 7 3 4 2 3 3 2 7 5 3 5 5 3 11 6 3 4 7 2 2 5 5 2 3 5 9 10 15 8 10 16 16 17 11
19 19 17 16 13 6 7 8 4 5 2 6 11 7 4 5 4 8 12 6 4 5 10 7 6 11 7 5 7 6 6 4 5 6 2 3 7 6 10 10 10 17 16 11 15
20 20 19 17 7 5 8 8 5 2 3 6 11 7 8 5 5 7 9 6 5 12 5 8 6 8 10 11 9 7 7 6 3 2 4 3 7 7 9 12 9 15 10 12 11
19 21 22 21 8 9 6 9 8 5 9 7 10 8 12 12 9 6 10 1 7 9 8 9 5 6 9 7 10 5 6 6 3 3 2 3 3 8 5 9 19 21 16 8 12
20 21 24 17 2 6 11 13 7 8 16 9 7 13 16 18 6 4 7 1 4 5 4 7 2 8 7 7 9 6 6 7 5 3 4 10 9 5 7 11 7 8 8 9 8
21 20 19 7 11 6 13 9 11 17 3 6 7 12 22 14 16 10 15 14 8 7 7 1 10 2 3 6 3 3 8 2 4 0 9 1 7 7 8 12 7 7 6 5 7
24 17 15 4 6 8 9 12 16 22 7 3 9 8 19 9 15 12 15 14 16 1 4 7 5 11 7 7 8 11 10 7 9 6 4 4 9 9 11 11 7 7 5 7 8
23 12 8 7 6 7 10 19 19 13 16 11 9 8 10 9 9 13 17 17 15 14 8 8 7 2 3 5 10 5 11 7 5 2 3 6 8 10 9 8 6 8 7 8 7
11 9 12 9 6 7 11 24 11 10 12 9 16 10 14 12 12 15 16 15 14 20 5 7 2 4 14 4 4 6 8 3 2 2 5 6 6 9 1 8 6 9 9 7 6
8 7 8 13 7 7 10 6 14 10 6 26 17 10 13 12 15 16 16 7 22 20 17 5 4 2 6 9 17 6 5 4 6 6 6 2 8 9 15 8 9 6 9 9 8
6 5 6 13 12 3 6 8 5 3 14 9 7 10 10 15 15 19 21 16 15 16 23 7 4 5 9 4 5 13 7 10 6 4 5 1 12 5 8 9 10 11 9 7 7
5 3 4 12 11 4 5 1 3 3 4 12 15 16 6 13 10 15 12 10 7 16 18 14 5 2 4 5 1 10 13 15 4 3 12 6 9 2 1 4 8 10 8 7 5
4 5 5 7 3 8 4 5 4 7 7 5 6 6 10 15 16 16 12 6 12 15 11 15 5 17 16 8 11 12 19 19 18 7 6 19 9 5 4 7 5 6 5 6 6
3 5 6 9 10 12 11 6 7 4 9 9 6 19 20 14 20 20 19 14 9 14 14 11 11 14 21 2 9 10 18 22 20 28 15 24 17 17 14 9 5 7 6 7 9
5 5 3 2 7 14 17 14 13 10 9 11 17 8 12 18 23 24 23 16 16 9 19 6 7 9 6 13 6 4 17 22 28 30 19 27 23 15 12 9 17 21 18 8 8
2 3 5 9 6 9 9 13 16 14 7 10 12 16 17 16 8 2 4 7 6 14 17 14 8 5 15 14 5 6 19 24 21 25 23 26 31 17 17 17 17 17 9 10 12
Wind_Direction
221 221 221 221 218 214 226 230 216 215 204 126 22 356 343 339 322 322 269 319 314 322 324 312 6 351 18 328 338 65 70 196 245 290 274 333 112 5 112 103 55 15 148 226 150
232 219 216 220 212 207 211 229 229 225 212 194 99 350 335 343 306 270 320 321 313 328 1 12 351 350 11 315 335 91 136 209 231 160 26 354 324 137 113 102 28 26 14 104 142
252 235 213 214 214 203 199 203 226 231 206 221 261 356 332 335 289 242 314 320 315 317 279 317 306 303 6 340 243 170 184 213 294 159 10 19 358 299 127 89 191 192 170 149 150
216 237 233 212 214 208 200 193 203 219 216 210 268 326 331 320 230 178 270 297 321 331 266 305 276 35 227 205 262 202 227 254 326 284 131 156 295 351 347 160 190 191 159 156 171
210 213 231 230 206 211 204 198 194 201 220 238 253 305 351 246 253 192 303 329 312 180 205 199 182 179 203 238 317 198 269 266 340 358 271 156 174 239 273 234 12 129 162 181 187
212 205 195 226 222 204 204 198 193 192 196 207 201 145 5 235 154 77 356 344 40 14 236 184 234 253 278 234 167 100 357 332 308 305 265 243 217 188 263 295 144 164 195 198 198
197 198 194 187 220 222 200 201 190 185 182 178 201 172 297 248 348 172 36 306 346 31 22 0 318 104 349 183 301 147 146 343 267 222 239 171 294 244 205 293 289 199 225 231 230
198 195 190 182 187 218 214 197 191 182 173 162 143 18 244 270 258 289 190 315 318 333 6 321 30 105 66 320 16 56 80 58 265 201 251 137 260 263 211 208 262 283 275 226 240
191 192 190 190 189 195 211 216 189 177 165 142 109 105 256 321 233 214 180 243 248 333 16 345 46 102 28 91 22 340 224 211 312 209 212 197 248 254 238 186 249 280 275 281 258
194 189 192 192 190 182 172 210 207 144 133 72 29 67 273 232 209 163 182 88 190 129 48 57 53 101 69 128 201 196 202 246 215 259 141 257 259 277 236 218 252 260 276 272 268
197 195 190 188 191 185 139 127 134 208 191 191 180 201 118 268 3 94 140 62 61 116 153 217 147 201 202 180 129 126 132 231 258 262 326 251 271 276 274 261 270 277 263 252 252
198 196 193 191 192 194 157 195 192 170 175 237 198 230 167 170 106 211 137 170 172 176 143 97 228 215 156 178 219 220 279 265 279 261 196 297 285 269 277 251 233 253 256 256 262
203 199 197 194 189 190 188 199 115 344 186 179 202 205 185 160 190 194 163 148 164 178 192 173 222 179 181 187 197 231 208 221 226 331 329 306 284 250 278 270 253 253 256 247 249
207 199 195 193 175 147 210 164 109 42 259 197 190 224 177 133 256 179 183 144 190 200 169 248 248 177 184 212 179 216 200 212 197 357 243 51 286 299 264 270 283 272 245 243 243
210 203 193 175 145 190 164 136 118 80 243 165 163 161 162 174 137 223 180 132 177 178 169 217 206 188 200 196 175 221 176 204 173 184 348 198 272 255 281 266 259 264 270 236 235
215 205 197 191 142 168 135 141 105 200 228 175 143 180 161 192 167 103 166 316 181 187 256 219 203 178 199 189 179 150 89 48 48 83 272 200 188 251 214 221 260 277 263 232 228
204 210 198 176 199 159 149 151 196 215 195 169 178 180 186 176 187 164 180 190 175 151 211 252 236 286 182 130 112 152 120 8 354 314 235 204 197 244 259 252 230 275 249 129 118
186 207 208 181 172 165 171 197 209 215 201 147 172 183 196 150 200 174 168 196 226 237 116 159 284 185 209 185 177 188 169 163 199 198 250 130 233 250 236 261 251 255 171 130 134
190 179 221 198 190 189 199 204 208 192 179 185 155 171 191 180 175 175 191 202 198 201 181 171 247 176 196 157 149 182 207 163 93 39 60 226 277 298 252 255 189 192 171 152 141
188 179 201 182 198 202 218 226 195 182 185 141 185 180 189 181 174 192 174 199 207 201 224 204 201 207 196 125 240 181 144 135 43 214 256 255 260 236 274 239 215 195 189 185 155
175 186 179 171 186 205 221 210 222 228 209 192 198 181 200 179 193 193 198 211 197 186 195 197 163 309 123 210 186 147 182 193 157 177 203 250 253 222 226 216 193 202 193 181 165
155 175 180 157 206 186 196 156 185 297 213 248 207 183 181 179 195 205 209 208 194 169 195 188 143 181 199 292 212 212 201 182 175 214 234 219 257 250 229 238 185 196 199 176 167
145 124 181 165 208 192 119 144 149 191 225 217 219 211 165 177 200 203 214 191 168 170 181 180 195 94 4 326 307 209 216 208 160 106 217 159 260 324 50 197 203 163 170 180 192
130 152 159 188 178 185 123 172 195 179 243 314 265 221 197 205 209 187 220 197 180 197 187 175 158 211 205 192 146 197 208 208 209 221 206 230 246 302 237 221 171 143 176 213 211
159 195 183 166 177 184 182 186 183 192 213 171 222 217 200 202 206 218 205 208 195 191 194 181 206 214 235 196 181 192 198 203 209 227 205 246 236 229 251 218 222 243 237 220 187
128 134 93 121 131 176 185 198 197 225 194 229 219 255 225 220 208 207 205 194 197 183 199 195 236 187 242 241 201 177 203 208 215 229 231 254 258 238 253 263 275 272 269 250 244
96 59 108 156 137 178 204 196 198 192 209 251 229 224 255 224 221 261 265 243 176 176 191 191 185 152 238 226 172 230 216 210 220 226 211 232 237 260 261 240 234 243 230 238 242